LUCH (OLYMP)

Last updated on Sept. 28, 2020, 5:45 a.m. UTC

1 40258U 14058A   20271.77293334 -.00000085  00000-0  00000-0 0  9991
2 40258   0.0466 288.5013 0000924 159.8768 192.0993  1.00151659 21995
UTC
Height (km)
Latitude
Longitude
Inclination
Orbital Period
UTC large
Height (km)
Speed (km/s)
/
Latitude / Longitude
Inclination (degrees)
Orbital Period (minutes)
Azimuth
Elevation
Range (km)
Doppler Factor
iOS Compass Heading
iOS Angle

Next 30 passes for location: Hong Kong

Rise time Rise Azimuth (degrees) Set time Set Azimuth (degrees) Duration Max altitude (degrees)

No matching passes for this satellites